User: anonymous   Login
Location: Shades State Park
(39.9310°N, 87.0690°W)
Time: 22:04:40
(UTC-04:00)
Language:

H-2A R/B - Orbit

View from above orbital plane
View from above orbital plane
View from above satellite
View from above satellite

Ground track
Ground track

The orbit data is extracted from the following two-line orbital elements,

1 27601U 02056E   15089.83767904  .00000431  00000-0  17291-3 0  9997
2 27601 098.4568 170.5782 0072717 171.0782 297.8630 14.31562771642002
Epoch (UTC): 30 March 2015 20:06:15
Eccentricity: 0.0072717
inclination: 98.4568°
perigee height: 734 km
apogee height: 838 km
right ascension of ascending node: 170.5782°
argument of perigee: 171.0782°
revolutions per day: 14.31562771
mean anomaly at epoch: 297.8630°
orbit number at epoch: 64200

The dashed part of the orbit path shows where the satellite is in the earth's shadow,  

DLR